Location: El Centro
(32.7920°N, 115.5620°W)
Time: 04:55:34
(UTC-07:00)

Hamsat - Visible Passes

Search period start: 25 October 2014 00:00
Search period end: 03 November 2014 23:00
Orbit: 592 x 629 km, 97.6° (Epoch: 24 October)

Date Brightness Start Highest point End Pass type
(mag) Time Alt. Az. Time Alt. Az. Time Alt. Az.
25 Oct ? 19:05:09 10° WSW 19:06:36 12° W 19:08:04 10° WNW visible
26 Oct ? 05:19:13 10° E 05:20:01 10° E 05:20:48 10° ESE visible
27 Oct ? 05:31:47 10° NE 05:34:25 16° E 05:37:04 10° SE visible
28 Oct ? 05:45:22 10° NE 05:48:48 24° E 05:52:14 10° SSE visible
29 Oct ? 05:59:15 10° NNE 06:03:08 36° E 06:07:03 10° SSE visible
29 Oct ? 18:23:51 10° SSW 18:27:40 34° W 18:31:28 10° NNW visible
30 Oct ? 06:13:18 10° NNE 06:17:27 55° E 06:21:37 10° S visible
30 Oct ? 18:38:42 10° SSW 18:42:00 23° W 18:45:18 10° NW visible
31 Oct ? 06:27:29 10° NNE 06:31:44 85° ESE 06:35:59 10° S visible
31 Oct ? 18:53:55 10° SW 18:56:21 15° W 18:58:47 10° WNW visible
02 Nov ? 04:22:18 10° ENE 04:24:07 12° E 04:25:56 10° ESE visible
03 Nov ? 04:35:27 10° NE 04:38:28 19° E 04:41:29 10° SE visible
